Вернуться в каталог

DELTA 2 R/B

АктивенLEO
NORAD 20571·ROCKET BODY·🇺🇸 United States

Запущен Apr 13, 1990 с Cape Canaveral Space Force Station

Loading…

Ближайшие Пролёты (ближайшие 24 часа)

TLE

СвежийSource: Space-Track

Эпоха: Sep 14, 2026, 20:36 UTC

1 20571U 90034B   26257.85899852  .00003041  00000-0  37553-3 0  9991
2 20571  22.7424  80.8557 0466858 142.5271 220.8690 14.22598855871293

Отслеживайте DELTA 2 R/B в реальном времени с AllMySat

Download on the App Store